Lid_Strength_Index
3 3 3 3 3 2 2 2 2 2 2 2 2 2 2 1 2 4 9 6 5 -0 0 6 7 8 10 11 10 10 14 14 13 11 10 7 8 5 4 6 5 4 4 4 2
3 3 3 3 3 3 2 2 2 2 2 2 2 2 2 2 5 8 3 -1 -1 -3 6 7 8 8 11 11 11 12 14 13 10 9 10 8 7 6 6 6 6 5 3 3 3
3 3 3 3 3 3 3 2 2 2 2 2 2 2 2 2 7 6 -3 -1 -2 -2 6 7 8 9 11 12 12 12 13 10 9 8 8 7 7 6 7 8 6 6 5 5 4
3 3 3 3 3 3 3 3 2 2 2 2 2 2 2 4 11 4 -2 -2 -3 4 7 9 10 12 12 13 12 13 11 10 9 8 8 9 5 7 6 6 4 4 3 5 5
4 4 4 4 4 3 3 3 3 2 2 2 2 2 4 8 9 4 -2 -2 2 5 7 10 10 11 11 11 11 13 11 10 10 11 8 8 8 7 6 4 4 3 3 5 5
4 4 4 4 4 4 3 3 3 3 2 2 2 2 7 11 6 1 3 4 6 8 8 9 8 8 10 10 11 10 11 10 10 10 10 9 9 8 7 5 5 4 4 4 4
4 4 4 4 4 4 3 3 3 3 2 2 2 3 5 9 4 3 5 7 7 6 6 7 7 8 10 10 9 9 11 10 10 11 10 9 10 10 7 6 7 7 5 5 4
4 4 4 4 4 4 3 3 3 3 2 2 1 4 8 4 4 6 6 6 5 6 5 5 6 8 9 9 8 10 12 13 11 10 9 8 11 8 7 6 7 6 5 5 5
4 4 4 4 3 3 3 3 3 1 2 1 4 5 8 2 5 4 5 6 5 5 5 3 7 9 8 11 12 13 13 12 10 8 8 9 11 8 7 7 7 7 6 6 5
4 4 4 4 3 4 4 3 2 2 2 2 3 8 7 6 5 4 5 5 6 6 6 8 9 11 12 13 15 14 13 13 12 10 10 11 11 10 7 7 7 7 6 6 6
4 4 4 4 3 4 5 5 6 7 6 7 7 6 5 3 3 5 4 5 5 8 11 10 12 13 11 11 10 10 11 12 10 9 11 10 10 10 7 7 7 7 7 6 6
4 4 4 4 4 4 5 5 4 6 9 5 5 5 4 4 5 5 4 6 7 10 10 11 13 10 9 9 9 10 11 11 9 9 10 12 11 11 8 8 7 7 7 7 6
4 4 4 4 4 6 6 5 2 5 9 7 5 5 5 4 5 6 4 6 8 9 11 12 10 8 8 9 10 11 12 11 11 10 10 11 11 11 8 8 6 6 6 6 6
5 4 4 5 5 6 5 3 4 5 12 9 8 6 4 4 6 4 4 5 8 9 9 10 8 8 9 10 10 12 9 9 10 12 14 11 16 13 11 8 8 8 7 7 6
5 4 4 5 7 6 4 4 6 5 16 7 8 4 5 6 6 6 4 6 8 8 9 10 9 10 10 10 9 10 8 9 9 12 14 13 15 13 11 11 10 8 7 7 6
5 4 5 5 6 5 4 5 5 11 16 9 7 7 8 7 6 6 6 5 5 8 8 8 7 7 9 7 8 8 10 11 12 13 15 14 14 13 13 10 9 8 7 6 6
4 4 6 4 6 4 5 5 11 15 8 9 8 7 8 8 8 8 8 10 10 12 12 9 8 7 7 9 8 10 13 16 17 16 16 12 14 12 10 9 8 8 8 6 6
5 5 5 4 4 4 5 8 15 10 10 7 8 8 10 9 9 8 9 11 9 10 11 12 13 9 7 9 10 11 12 16 18 18 15 12 15 12 9 8 8 6 7 6 6
6 5 4 3 4 5 7 13 12 9 8 9 9 11 11 9 10 9 10 12 10 11 13 12 12 7 7 7 8 10 13 11 14 15 17 15 12 10 8 8 7 7 7 7 6
8 6 7 6 6 6 9 11 11 9 8 8 11 9 12 11 11 11 10 12 13 11 9 12 14 8 7 7 7 10 9 13 15 18 19 16 14 13 11 10 9 8 8 7 6
6 9 6 5 6 8 12 12 11 10 9 10 12 12 12 12 11 10 11 12 13 13 10 12 13 12 9 10 11 11 12 12 13 15 16 16 15 11 11 9 9 8 7 7 6
8 12 6 6 11 12 13 10 9 12 11 11 11 13 13 13 12 12 14 13 11 11 14 13 14 15 12 9 8 9 11 11 15 16 14 16 16 10 9 9 9 8 7 6 6
10 11 6 7 14 14 11 11 11 11 12 11 13 12 12 14 15 12 13 11 11 11 13 13 15 17 15 13 13 13 11 11 12 13 15 16 15 9 8 9 8 8 7 6 6
11 14 11 10 11 13 13 13 13 10 11 11 12 12 14 15 14 15 14 12 11 12 9 12 15 14 17 17 15 15 13 11 12 16 15 15 12 10 9 9 8 8 7 6 6
11 13 12 15 15 14 14 13 14 14 12 12 13 13 15 17 16 16 14 13 12 11 13 15 19 16 15 13 14 13 14 13 13 12 15 13 13 11 10 9 8 7 7 7 7
13 13 12 14 14 14 14 15 13 13 13 14 14 13 13 15 15 16 14 14 15 14 15 15 18 16 18 15 14 14 13 11 11 11 12 11 13 10 8 7 8 7 7 7 7
11 10 12 14 15 15 15 13 12 12 11 11 12 13 13 11 10 10 11 12 12 14 14 16 16 17 19 15 15 18 13 12 11 11 12 15 12 9 9 8 8 7 6 6 6